Time,TemperatureF,DewpointF,PressureIn,WindDirection,WindDirectionDegrees,WindSpeedMPH,WindSpeedGustMPH,Humidity,HourlyPrecipIn,Conditions,Clouds,dailyrainin,SoftwareType,DateUTC
2013-03-14 00:00:00,46.2,33.9,30.01,NNW,332,4.0,4.0,62,0.00,,,0.00,Wunderground v.1.15,2013-03-14 04:00:00,
2013-03-14 00:10:00,46.2,33.1,30.01,NE,34,5.0,5.0,60,0.00,,,0.00,Wunderground v.1.15,2013-03-14 04:10:00,
2013-03-14 00:20:00,46.0,32.5,30.02,NNW,346,4.0,5.0,59,0.00,,,0.00,Wunderground v.1.15,2013-03-14 04:20:00,
2013-03-14 00:30:00,45.7,33.0,30.02,NW,309,4.0,4.0,61,0.00,,,0.00,Wunderground v.1.15,2013-03-14 04:30:00,
2013-03-14 00:40:00,45.6,32.1,30.02,NNW,336,5.0,9.0,59,0.00,,,0.00,Wunderground v.1.15,2013-03-14 04:40:00,
2013-03-14 00:50:00,45.6,31.2,30.02,WNW,302,6.0,6.0,57,0.00,,,0.00,Wunderground v.1.15,2013-03-14 04:50:00,
2013-03-14 01:00:00,45.4,31.0,30.02,NNW,337,5.0,5.0,57,0.00,,,0.00,Wunderground v.1.15,2013-03-14 05:00:00,
2013-03-14 01:10:00,45.1,30.8,30.02,NW,314,5.0,5.0,57,0.00,,,0.00,Wunderground v.1.15,2013-03-14 05:10:00,
2013-03-14 01:20:00,44.9,31.0,30.03,NW,316,5.0,5.0,58,0.00,,,0.00,Wunderground v.1.15,2013-03-14 05:20:00,
2013-03-14 01:30:00,44.5,31.9,30.03,NW,323,4.0,4.0,61,0.00,,,0.00,Wunderground v.1.15,2013-03-14 05:30:00,
2013-03-14 01:40:00,44.1,31.9,30.03,WNW,282,3.0,3.0,62,0.00,,,0.00,Wunderground v.1.15,2013-03-14 05:40:00,
2013-03-14 01:50:00,43.9,31.7,30.03,NW,323,4.0,4.0,62,0.00,,,0.00,Wunderground v.1.15,2013-03-14 05:50:00,
2013-03-14 02:00:00,43.7,30.3,30.03,WNW,300,4.0,7.0,59,0.00,,,0.00,Wunderground v.1.15,2013-03-14 06:00:00,
2013-03-14 02:10:00,43.6,29.8,30.03,NNW,345,5.0,5.0,58,0.00,,,0.00,Wunderground v.1.15,2013-03-14 06:10:00,
2013-03-14 02:20:00,43.7,28.6,30.04,WNW,285,5.0,10.0,55,0.00,,,0.00,Wunderground v.1.15,2013-03-14 06:20:00,
2013-03-14 02:30:00,43.7,28.1,30.05,NW,311,6.0,7.0,54,0.00,,,0.00,Wunderground v.1.15,2013-03-14 06:30:00,
2013-03-14 02:40:00,43.4,26.5,30.05,NW,313,8.0,8.0,51,0.00,,,0.00,Wunderground v.1.15,2013-03-14 06:40:00,
2013-03-14 07:40:00,34.3,23.0,30.12,NW,323,4.0,8.0,63,0.00,,,0.00,Wunderground v.1.15,2013-03-14 11:40:00,
2013-03-14 07:50:00,34.7,23.0,30.13,NW,306,6.0,6.0,62,0.00,,,0.00,Wunderground v.1.15,2013-03-14 11:50:00,
2013-03-14 08:00:00,35.2,23.1,30.14,NNW,336,5.0,5.0,61,0.00,,,0.00,Wunderground v.1.15,2013-03-14 12:00:00,
2013-03-14 08:10:00,35.6,23.1,30.14,NW,317,5.0,8.0,60,0.00,,,0.00,Wunderground v.1.15,2013-03-14 12:10:00,
2013-03-14 08:20:00,36.1,23.5,30.14,NW,306,5.0,5.0,60,0.00,,,0.00,Wunderground v.1.15,2013-03-14 12:20:00,
2013-03-14 08:30:00,36.7,24.1,30.15,NNW,340,5.0,5.0,60,0.00,,,0.00,Wunderground v.1.15,2013-03-14 12:30:00,
2013-03-14 08:40:00,37.3,23.9,30.15,NNW,339,5.0,5.0,58,0.00,,,0.00,Wunderground v.1.15,2013-03-14 12:40:00,
2013-03-14 08:50:00,37.7,23.8,30.16,WNW,294,5.0,6.0,57,0.00,,,0.00,Wunderground v.1.15,2013-03-14 12:50:00,
2013-03-14 09:00:00,38.1,23.3,30.16,North,360,8.0,8.0,55,0.00,,,0.00,Wunderground v.1.15,2013-03-14 13:00:00,
2013-03-14 09:10:00,38.2,23.9,30.16,NNE,26,8.0,9.0,56,0.00,,,0.00,Wunderground v.1.15,2013-03-14 13:10:00,
2013-03-14 09:20:00,38.8,24.0,30.17,WNW,286,7.0,7.0,55,0.00,,,0.00,Wunderground v.1.15,2013-03-14 13:20:00,
2013-03-14 09:30:00,39.0,23.3,30.17,WNW,282,7.0,9.0,53,0.00,,,0.00,Wunderground v.1.15,2013-03-14 13:30:00,
2013-03-14 09:40:00,39.1,23.4,30.17,NNW,347,8.0,8.0,53,0.00,,,0.00,Wunderground v.1.15,2013-03-14 13:40:00,
2013-03-14 09:50:00,39.2,23.0,30.17,NNW,334,8.0,8.0,52,0.00,,,0.00,Wunderground v.1.15,2013-03-14 13:50:00,
2013-03-14 10:00:00,39.8,23.1,30.17,NW,323,8.0,8.0,51,0.00,,,0.00,Wunderground v.1.15,2013-03-14 14:00:00,
2013-03-14 10:10:00,39.8,23.1,30.17,NW,322,8.0,8.0,51,0.00,,,0.00,Wunderground v.1.15,2013-03-14 14:10:00,
2013-03-14 10:20:00,40.3,22.6,30.17,NW,319,7.0,10.0,49,0.00,,,0.00,Wunderground v.1.15,2013-03-14 14:20:00,
2013-03-14 10:30:00,40.3,23.6,30.16,NNW,339,7.0,7.0,51,0.00,,,0.00,Wunderground v.1.15,2013-03-14 14:30:00,
2013-03-14 10:40:00,40.6,23.9,30.16,NNW,332,7.0,10.0,51,0.00,,,0.00,Wunderground v.1.15,2013-03-14 14:40:00,
2013-03-14 10:50:00,41.3,25.4,30.16,West,279,7.0,7.0,53,0.00,,,0.00,Wunderground v.1.15,2013-03-14 14:50:00,
2013-03-14 11:00:00,41.3,24.0,30.16,NE,56,6.0,6.0,50,0.00,,,0.00,Wunderground v.1.15,2013-03-14 15:00:00,
2013-03-14 11:10:00,41.7,22.4,30.16,WNW,296,7.0,11.0,46,0.00,,,0.00,Wunderground v.1.15,2013-03-14 15:10:00,
2013-03-14 11:20:00,41.8,22.5,30.16,NNW,336,8.0,8.0,46,0.00,,,0.00,Wunderground v.1.15,2013-03-14 15:20:00,
2013-03-14 11:30:00,42.2,22.4,30.15,WNW,299,7.0,7.0,45,0.00,,,0.00,Wunderground v.1.15,2013-03-14 15:30:00,
2013-03-14 11:40:00,42.6,21.6,30.15,NW,312,5.0,8.0,43,0.00,,,0.00,Wunderground v.1.15,2013-03-14 15:40:00,
2013-03-14 11:50:00,42.5,21.5,30.16,NW,325,7.0,7.0,43,0.00,,,0.00,Wunderground v.1.15,2013-03-14 15:50:00,
2013-03-14 12:00:00,42.7,22.8,30.15,NNE,24,6.0,8.0,45,0.00,,,0.00,Wunderground v.1.15,2013-03-14 16:00:00,
2013-03-14 12:10:00,43.2,23.8,30.15,NNE,24,7.0,7.0,46,0.00,,,0.00,Wunderground v.1.15,2013-03-14 16:10:00,
2013-03-14 12:20:00,43.4,22.4,30.15,NNE,23,5.0,5.0,43,0.00,,,0.00,Wunderground v.1.15,2013-03-14 16:20:00,
2013-03-14 12:30:00,43.5,22.5,30.15,NNE,15,7.0,12.0,43,0.00,,,0.00,Wunderground v.1.15,2013-03-14 16:30:00,
2013-03-14 12:40:00,43.5,22.5,30.15,NNE,16,7.0,7.0,43,0.00,,,0.00,Wunderground v.1.15,2013-03-14 16:40:00,
2013-03-14 12:50:00,44.1,22.4,30.15,NNW,333,6.0,7.0,42,0.00,,,0.00,Wunderground v.1.15,2013-03-14 16:50:00,
2013-03-14 13:00:00,44.2,24.2,30.15,West,261,6.0,6.0,45,0.00,,,0.00,Wunderground v.1.15,2013-03-14 17:00:00,
2013-03-14 13:10:00,44.8,24.2,30.15,WNW,298,5.0,8.0,44,0.00,,,0.00,Wunderground v.1.15,2013-03-14 17:10:00,
2013-03-14 13:20:00,45.4,24.7,30.14,WNW,297,5.0,5.0,44,0.00,,,0.00,Wunderground v.1.15,2013-03-14 17:20:00,
2013-03-14 13:30:00,45.7,24.5,30.14,WSW,258,5.0,5.0,43,0.00,,,0.00,Wunderground v.1.15,2013-03-14 17:30:00,
2013-03-14 13:40:00,46.1,24.3,30.14,WSW,258,5.0,5.0,42,0.00,,,0.00,Wunderground v.1.15,2013-03-14 17:40:00,
2013-03-14 13:50:00,46.5,26.8,30.13,WNW,292,5.0,5.0,46,0.00,,,0.00,Wunderground v.1.15,2013-03-14 17:50:00,
2013-03-14 14:00:00,45.7,23.9,30.13,NW,310,7.0,7.0,42,0.00,,,0.00,Wunderground v.1.15,2013-03-14 18:00:00,
2013-03-14 14:10:00,46.8,24.9,30.13,WNW,286,5.0,7.0,42,0.00,,,0.00,Wunderground v.1.15,2013-03-14 18:10:00,
2013-03-14 14:20:00,46.6,24.7,30.12,West,271,7.0,13.0,42,0.00,,,0.00,Wunderground v.1.15,2013-03-14 18:20:00,
2013-03-14 14:30:00,46.9,26.1,30.11,West,281,5.0,5.0,44,0.00,,,0.00,Wunderground v.1.15,2013-03-14 18:30:00,
2013-03-14 14:40:00,47.5,23.7,30.11,NW,309,5.0,5.0,39,0.00,,,0.00,Wunderground v.1.15,2013-03-14 18:40:00,
2013-03-14 14:50:00,47.1,25.2,30.10,West,259,6.0,6.0,42,0.00,,,0.00,Wunderground v.1.15,2013-03-14 18:50:00,
2013-03-14 15:00:00,47.0,23.9,30.09,West,262,5.0,5.0,40,0.00,,,0.00,Wunderground v.1.15,2013-03-14 19:00:00,
2013-03-14 15:10:00,47.3,24.2,30.09,NNW,328,6.0,7.0,40,0.00,,,0.00,Wunderground v.1.15,2013-03-14 19:10:00,
2013-03-14 15:20:00,47.6,24.4,30.09,NW,304,6.0,6.0,40,0.00,,,0.00,Wunderground v.1.15,2013-03-14 19:20:00,
2013-03-14 15:30:00,47.9,22.8,30.09,NNW,336,6.0,6.0,37,0.00,,,0.00,Wunderground v.1.15,2013-03-14 19:30:00,
2013-03-14 15:40:00,48.3,23.8,30.09,WNW,301,6.0,6.0,38,0.00,,,0.00,Wunderground v.1.15,2013-03-14 19:40:00,
2013-03-14 15:50:00,48.4,23.9,30.08,West,275,5.0,5.0,38,0.00,,,0.00,Wunderground v.1.15,2013-03-14 19:50:00,
2013-03-14 16:00:00,48.6,23.5,30.08,NW,304,6.0,6.0,37,0.00,,,0.00,Wunderground v.1.15,2013-03-14 20:00:00,
2013-03-14 16:10:00,48.8,23.6,30.08,NNW,329,5.0,5.0,37,0.00,,,0.00,Wunderground v.1.15,2013-03-14 20:10:00,
2013-03-14 16:20:00,49.4,24.2,30.08,West,263,5.0,10.0,37,0.00,,,0.00,Wunderground v.1.15,2013-03-14 20:20:00,
2013-03-14 16:30:00,49.5,23.6,30.08,North,5,6.0,8.0,36,0.00,,,0.00,Wunderground v.1.15,2013-03-14 20:30:00,
2013-03-14 16:40:00,49.9,22.6,30.08,NE,36,5.0,5.0,34,0.00,,,0.00,Wunderground v.1.15,2013-03-14 20:40:00,
2013-03-14 16:50:00,49.9,21.2,30.08,NW,312,6.0,6.0,32,0.00,,,0.00,Wunderground v.1.15,2013-03-14 20:50:00,
2013-03-14 17:00:00,50.7,22.6,30.08,WNW,302,4.0,4.0,33,0.00,,,0.00,Wunderground v.1.15,2013-03-14 21:00:00,
2013-03-14 17:10:00,50.3,23.0,30.08,NW,313,7.0,14.0,34,0.00,,,0.00,Wunderground v.1.15,2013-03-14 21:10:00,
2013-03-14 17:20:00,50.2,22.2,30.08,NW,320,7.0,7.0,33,0.00,,,0.00,Wunderground v.1.15,2013-03-14 21:20:00,
2013-03-14 17:30:00,50.6,23.9,30.08,WNW,290,5.0,5.0,35,0.00,,,0.00,Wunderground v.1.15,2013-03-14 21:30:00,
2013-03-14 17:40:00,50.6,23.9,30.08,NW,304,5.0,6.0,35,0.00,,,0.00,Wunderground v.1.15,2013-03-14 21:40:00,
2013-03-14 17:50:00,50.4,23.1,30.08,WNW,300,6.0,6.0,34,0.00,,,0.00,Wunderground v.1.15,2013-03-14 21:50:00,
2013-03-14 18:00:00,50.3,23.0,30.07,WNW,286,5.0,5.0,34,0.00,,,0.00,Wunderground v.1.15,2013-03-14 22:00:00,
2013-03-14 18:10:00,50.3,23.0,30.07,WNW,292,5.0,5.0,34,0.00,,,0.00,Wunderground v.1.15,2013-03-14 22:10:00,
2013-03-14 18:20:00,50.3,24.3,30.08,WNW,293,3.0,5.0,36,0.00,,,0.00,Wunderground v.1.15,2013-03-14 22:20:00,
2013-03-14 18:30:00,50.1,25.5,30.08,WNW,298,3.0,8.0,38,0.00,,,0.00,Wunderground v.1.15,2013-03-14 22:30:00,
2013-03-14 18:40:00,49.2,24.6,30.08,NW,307,4.0,4.0,38,0.00,,,0.00,Wunderground v.1.15,2013-03-14 22:40:00,
2013-03-14 18:50:00,48.6,25.9,30.08,WNW,301,3.0,3.0,41,0.00,,,0.00,Wunderground v.1.15,2013-03-14 22:50:00,
2013-03-14 19:00:00,47.8,26.4,30.08,NW,310,2.0,2.0,43,0.00,,,0.00,Wunderground v.1.15,2013-03-14 23:00:00,
2013-03-14 19:10:00,47.0,26.7,30.08,NW,321,1.0,3.0,45,0.00,,,0.00,Wunderground v.1.15,2013-03-14 23:10:00,
2013-03-14 19:20:00,46.5,26.8,30.08,West,279,2.0,2.0,46,0.00,,,0.00,Wunderground v.1.15,2013-03-14 23:20:00,
2013-03-14 19:30:00,45.8,28.2,30.08,West,260,0.0,0.0,50,0.00,,,0.00,Wunderground v.1.15,2013-03-14 23:30:00,
2013-03-14 19:40:00,44.9,29.2,30.08,West,261,0.0,0.0,54,0.00,,,0.00,Wunderground v.1.15,2013-03-14 23:40:00,
2013-03-14 19:50:00,44.4,29.7,30.09,West,265,0.0,0.0,56,0.00,,,0.00,Wunderground v.1.15,2013-03-14 23:50:00,
2013-03-14 20:00:00,43.9,28.8,30.09,West,277,0.0,0.0,55,0.00,,,0.00,Wunderground v.1.15,2013-03-15 00:00:00,
2013-03-14 20:10:00,44.0,28.4,30.09,West,281,0.0,1.0,54,0.00,,,0.00,Wunderground v.1.15,2013-03-15 00:10:00,
2013-03-14 20:20:00,43.8,29.1,30.10,WSW,252,0.0,0.0,56,0.00,,,0.00,Wunderground v.1.15,2013-03-15 00:20:00,
2013-03-14 20:30:00,43.6,29.4,30.10,West,263,0.0,0.0,57,0.00,,,0.00,Wunderground v.1.15,2013-03-15 00:30:00,
2013-03-14 20:40:00,43.3,29.5,30.10,West,263,0.0,0.0,58,0.00,,,0.00,Wunderground v.1.15,2013-03-15 00:40:00,
2013-03-14 20:50:00,43.3,29.5,30.11,West,269,0.0,0.0,58,0.00,,,0.00,Wunderground v.1.15,2013-03-15 00:50:00,
2013-03-14 21:00:00,43.7,28.6,30.11,West,277,1.0,1.0,55,0.00,,,0.00,Wunderground v.1.15,2013-03-15 01:00:00,
2013-03-14 21:10:00,43.5,28.8,30.11,West,266,1.0,2.0,56,0.00,,,0.00,Wunderground v.1.15,2013-03-15 01:10:00,
2013-03-14 21:20:00,43.2,29.4,30.11,WSW,258,0.0,1.0,58,0.00,,,0.00,Wunderground v.1.15,2013-03-15 01:20:00,
2013-03-14 21:30:00,42.9,29.5,30.11,West,269,0.0,1.0,59,0.00,,,0.00,Wunderground v.1.15,2013-03-15 01:30:00,
2013-03-14 21:40:00,42.9,29.5,30.11,West,262,0.0,0.0,59,0.00,,,0.00,Wunderground v.1.15,2013-03-15 01:40:00,
2013-03-14 21:50:00,42.8,29.5,30.11,WSW,257,0.0,0.0,59,0.00,,,0.00,Wunderground v.1.15,2013-03-15 01:50:00,
2013-03-14 22:00:00,42.7,29.8,30.11,WSW,246,0.0,1.0,60,0.00,,,0.00,Wunderground v.1.15,2013-03-15 02:00:00,
2013-03-14 22:10:00,42.9,30.4,30.11,West,259,1.0,1.0,61,0.00,,,0.00,Wunderground v.1.15,2013-03-15 02:10:00,
2013-03-14 22:20:00,43.2,30.6,30.11,West,261,0.0,0.0,61,0.00,,,0.00,Wunderground v.1.15,2013-03-15 02:20:00,
2013-03-14 22:30:00,43.2,30.2,30.11,WSW,246,1.0,1.0,60,0.00,,,0.00,Wunderground v.1.15,2013-03-15 02:30:00,
2013-03-14 22:40:00,43.5,30.5,30.11,West,260,0.0,0.0,60,0.00,,,0.00,Wunderground v.1.15,2013-03-15 02:40:00,
2013-03-14 22:50:00,43.6,30.2,30.11,West,266,0.0,0.0,59,0.00,,,0.00,Wunderground v.1.15,2013-03-15 02:50:00,
2013-03-14 23:00:00,43.3,30.3,30.11,West,267,0.0,0.0,60,0.00,,,0.00,Wunderground v.1.15,2013-03-15 03:00:00,
2013-03-14 23:10:00,43.1,30.6,30.11,West,266,0.0,0.0,61,0.00,,,0.00,Wunderground v.1.15,2013-03-15 03:10:00,
2013-03-14 23:20:00,43.2,30.6,30.11,WSW,251,0.0,0.0,61,0.00,,,0.00,Wunderground v.1.15,2013-03-15 03:20:00,
2013-03-14 23:30:00,43.3,30.3,30.11,West,263,0.0,0.0,60,0.00,,,0.00,Wunderground v.1.15,2013-03-15 03:30:00,
2013-03-14 23:40:00,43.4,30.4,30.11,WSW,255,0.0,1.0,60,0.00,,,0.00,Wunderground v.1.15,2013-03-15 03:40:00,
2013-03-14 23:50:00,43.8,30.0,30.11,West,267,0.0,0.0,58,0.00,,,0.00,Wunderground v.1.15,2013-03-15 03:50:00,